Location: Seattle
(47.6064°N, 122.3308°W)
Time: 21:54:19
(UTC-07:00)

ITUPSAT 1 - Pass Details

Date: 10 April 2023
Orbit: 697 x 710 km, 98.5° (Epoch: 29 May)

Event Time Altitude Azimuth Distance (km) Brightness Sun altitude
Rises 21:06:03 0° 30° (NNE) 3,114 ? -12.5°
Reaches altitude 10° 21:09:10 10° 51° (NE) 2,186 ? -13.0°
Maximum altitude 21:12:08 16° 90° (E) 1,788 ? -13.4°
Enters shadow 21:12:10 16° 90° (E) 1,788 ? -13.4°
